Regional Weather Roundup
Issued by NWS

Home | Current Version | Previous Version | Graphics & Text | Print | Product List | Glossary On
Versions: 1 2 3 4 5 6 7 8 9 10 11 12 13 14 15 16 17 18 19 20 21 22 23 24 25 26 27 28 29 30 31 32 33 34 35 36 37 38 39 40 41 42 43 44 45 46 47 48 49 50
000
ASUS43 KDTX 010401
RWRMI
MICHIGAN HOURLY REGIONAL WEATHER ROUNDUP
NATIONAL WEATHER SERVICE DETROIT/PONTIAC MI
1200 AM EDT SAT AUG 01 2015

NOTE: "FAIR" INDICATES FEW OR NO CLOUDS BELOW 12,000 FEET WITH NO
SIGNIFICANT WEATHER AND/OR OBSTRUCTION TO VISIBILITY.

MIZ047>049-052>055-059>063-066>070-074>076-081>083-010500-
SOUTHEAST LOWER MICHIGAN

CITY           SKY/WX    TMP DP  RH WIND       PRES   REMARKS
ADRIAN         CLEAR     64  54  69 W6        29.93R
ALMA           PTCLDY    61  59  95 CALM      29.91S
ANN ARBOR      CLEAR     66  52  60 W8        29.91R
BAD AXE        PTCLDY    62  57  86 CALM      29.87S
CARO           PTCLDY    60  56  87 CALM      29.88S
DETROIT CITY   CLEAR     73  52  47 W7        29.89R
DETROIT        CLEAR     72  51  47 W7        29.90R
FLINT          MOCLDY    68  56  65 W8        29.91R
GROSSE ILE     CLEAR     72  52  49 W6        29.88R
HILLSDALE      CLEAR     65  52  63 W3        29.95R
HOWELL         CLEAR     64  53  67 W5        29.91S

CITY           SKY/WX    TMP DP  RH WIND       PRES   REMARKS
JACKSON        CLEAR     65  52  62 W7        29.93R
LAMBERTVILLE   CLEAR     68  54  61 CALM      29.92S
LANSING        MOCLDY    68  53  58 W7        29.92R
LAPEER         CLOUDY    68  53  60 W3        29.89S
MASON          CLEAR     64  52  64 CALM      29.92S
MONROE         CLEAR     65  55  69 W6        29.89S
MT. CLEMENS    CLEAR     72  56  55 NW8       29.87R
PONTIAC        PTCLDY    69  55  60 N10       29.90R
PORT HOPE        N/A     66  57  72 W9        29.84S
PORT HURON     CLEAR     63  57  82 CALM      29.88R
TRI CITIES     MOCLDY    69  56  62 W7        29.89S
MIDLAND        FAIR      61  60  95 CALM      29.89R
TROY           CLEAR     73  54  50 W7        29.90S
SAGINAW HB     MOCLDY    70  55  60 W6        29.88S
$$
MIZ043>046-050>051-056>058-064>065-071>073-077>080-010500-
SOUTHWEST LOWER MICHIGAN

CITY           SKY/WX    TMP DP  RH WIND       PRES   REMARKS
BATTLE CREEK   CLEAR     66  53  63 W6        29.95R
BENTON HARBOR  CLEAR     62  58  86 CALM      29.95S
BIG RAPIDS     CLEAR     60  58  96 CALM      29.92R
COLDWATER      CLEAR     61  54  77 W3        29.95S
FREMONT        FAIR      64  58  81 CALM      29.92R
HOLLAND        CLEAR     68  60  75 W5        29.94S
GRAND RAPIDS   MOCLDY    69  56  62 W8        29.93R
IONIA          CLOUDY    67  55  64 W7        29.91S
KALAMAZOO      CLEAR     63  54  72 SW6       29.95S
LUDINGTON      CLOUDY    71  60  68 W3        29.92R
MARSHALL       CLEAR     64  52  66 CALM      29.94R
MOUNT PLEASANT PTCLDY    64  58  79 CALM      29.90R
MUSKEGON       CLEAR     67  60  78 W5        29.92S
SOUTH HAVEN    CLEAR     63  60  90 CALM      29.94S
$$
MIZ016>042-010500-
NORTHERN LOWER MICHIGAN

CITY           SKY/WX    TMP DP  RH WIND       PRES   REMARKS
ALPENA         CLEAR     59  55  87 W3        29.86R
BEAVER ISLAND  FOG       57  54  89 CALM      29.87R VSB<1/4
BELLAIRE       CLEAR     57  54  89 CALM      29.88S
CADILLAC       CLEAR     57  53  88 W3        29.91S
CHARLEVOIX     CLEAR     61  60  94 SW5       29.90R
FRANKFORT      CLEAR     58  56  96 CALM      29.89S
GAYLORD        CLEAR     58  54  86 SW5       29.90R
GRAYLING       CLEAR     56  52  85 CALM      29.90S
HARBOR SPRINGS CLEAR     61  54  78 CALM      29.86S
HOUGHTON LAKE  CLEAR     62  57  83 NW5       29.90S
MANISTEE         N/A     61  55  82 CALM      29.91S VSB 3/4
OSCODA         PTCLDY    61  55  81 W3        29.86R
PELLSTON       CLEAR     55  52  89 CALM      29.86S
ROGERS CITY    CLEAR     61  56  85 W3        29.86S
TRAVERSE CITY  CLEAR     64  55  72 CALM      29.87R
$$
MIZ007>008-015-010500-
EASTERN UPPER MICHIGAN

CITY           SKY/WX    TMP DP  RH WIND       PRES   REMARKS
KINROSS        CLEAR     57  55  94 W3        29.83S
MACKINAC ISLAN CLEAR     63  53  71 W5        29.84F
NEWBERRY       CLEAR     58  53  81 W6        29.83F
S. S. MARIE    CLEAR     58  53  84 NW6       29.82F
MUNISING         N/A     59  54  83 S5        29.84S
$$
MIZ004>006-011>014-085-010500-
CENTRAL UPPER MICHIGAN

CITY           SKY/WX    TMP DP  RH WIND       PRES   REMARKS
ESCANABA       CLEAR     63  52  67 W5        29.87R
MENOMINEE      CLEAR     64  50  59 W5        29.90S
SAWYER-GWINN   CLEAR     61  50  69 W5        29.87S
$$
MIZ001>003-009>011-084-010500-
WESTERN UPPER MICHIGAN

CITY           SKY/WX    TMP DP  RH WIND       PRES   REMARKS
IRON MOUNTAIN  CLEAR     61  51  70 NW5       29.89S
HOUGHTON       CLEAR     62  54  74 NW10      29.86R
COPPER HARBOR    N/A     66  53  63 N14G20    29.81S
IRONWOOD       PTCLDY    55  54  94 W3        29.90S
$$

ABBREVIATIONS USED IN REMARKS
   TC - TEMPERATURE IN CELSIUS
  WCI - WIND CHILL INDEX
   HX - HEAT INDEX
  VSB - VISIBILITY




USA.gov is the U.S. government's official web portal to all federal, state and local government web resources and services.